Starlink 32491

operational
NORAD ID: 62043 Int'l Des: 2024-216 Owner: SPXS Country: US Constellation: starlink
LEOCIRCULAR

About Starlink 32491

Description loading...

Live Position

Loading 3D Globe...

Upcoming Passes

Altitude History

Altitude vs Time

uPlot chart will show altitude changes over time

Two-Line Element Set

1 62043U 24216M 25259.46425939 .00026329 00000-0 96324-3 0 9994
2 62043 43.0004 167.7375 0002097 45.8338 314.2685 15.27567603 47140
Epoch: Sep 16, 2025 • Age: 22 hours

Current Status

Altitude 492.2 km
Velocity 7.62 km/s
Sub-Earth Point -32.25°S, 9.54°W
Launch Date Nov 21, 2024
Age 0.8 years
Type internet

Technical Details

Classification Payload
Mass 730.00 kg
Dry Mass 700.00 kg
Total Mass 730.00 kg
Length 0.30 m
Diameter 4.10 m
Span 29.00 m
Shape Box + pan
Manufacturer SPXS
Bus Type Starlink V2M
Phase Status In Orbit
Owner/State SPXS/US

Large Constellations

Loading constellations...